Location: Unnamed
(47.6578°N, 23.5640°E)
Time: 21:49:43
(UTC+03:00)

ISS - Pass Details

Date: 28 April 2020
Orbit: 418 x 421 km, 51.6° (Epoch: 08 May)

Event Time Altitude Azimuth Distance (km) Brightness Sun altitude
Exits shadow 05:26:47 - 208° (SSW) 1,687 -1.2 -7.8°
Reaches altitude 10° 05:27:19 10° 205° (SSW) 1,490 -1.5 -7.7°
Maximum altitude 05:30:16 29° 143° (SE) 794 -2.3 -7.3°
Drops below altitude 10° 05:33:14 10° 81° (E) 1,500 0.4 -6.9°
Sets 05:35:30 0° 70° (ENE) 2,369 2.3 -6.5°
